Vertical_Velocity
1 3 -1 2 -0 3 -1 -1 4 -8 30 -4 32 14 51 15 7 7 6 2 -0 -0 -1 0 -0 0 -2 -1 -2 -1 -1 -2 -1 -2 -1 -0 -1 -1 -1 -2 -2 -2 -1
0 -2 0 0 -4 -2 0 0 1 3 -5 4 6 26 7 13 1 1 20 2 -5 -3 1 2 1 -0 -2 -4 -2 -1 -0 -2 -2 -1 -2 -1 -1 -2 -1 -2 -1 -2 -1
2 2 2 3 1 2 -0 -1 1 4 -3 -4 21 4 14 3 7 4 2 8 1 -1 0 -0 2 -0 -1 -1 -1 -1 -1 -2 -2 -2 -3 -3 -4 -3 -3 -3 -2 -2 -3
3 4 5 3 3 -1 -0 0 -1 2 1 -1 12 13 9 7 3 -3 1 3 10 1 -1 -2 0 2 1 2 -0 -1 -1 -0 -0 -2 -1 -2 -2 -2 -2 -2 -3 -4 -4
-2 -0 1 3 1 2 2 4 -0 2 1 2 -0 -0 -2 1 2 2 2 1 3 6 11 -1 -1 2 1 -1 1 0 -1 -1 1 -2 0 -0 -1 -1 -1 -1 -1 -2 -3
0 -2 -4 -1 -1 1 1 1 -1 0 1 2 8 6 11 2 7 3 -3 1 2 2 20 9 3 2 1 0 1 -0 -2 -0 -0 -1 -3 -2 -3 -3 -2 -2 -2 -3 -4
-3 3 0 -2 -4 -3 -3 -2 -1 -0 -1 0 -4 -1 0 -3 -1 -1 -2 6 10 6 5 5 6 4 7 -3 0 0 -1 -0 -0 -1 -1 -1 -2 -1 -1 -3 -1 -1 -2
-4 -3 -1 -1 0 -1 2 2 3 3 3 4 1 1 1 1 2 -1 1 -0 7 0 -1 -3 2 5 5 1 -0 -3 -1 1 -1 -1 -0 1 0 -1 -1 -1 -1 -2 -5
14 8 13 12 6 -1 1 -3 -4 -2 -0 0 -1 2 2 -0 5 2 2 1 2 1 -1 4 3 3 5 1 -5 -0 -1 -0 0 1 1 1 0 -0 1 -1 -4 -1 -1
0 8 3 7 7 4 0 -0 -0 0 0 1 1 -0 -1 0 1 4 2 2 -0 1 3 2 4 6 1 2 2 5 2 2 -0 0 -0 1 1 -0 -1 -0 -2 -1 -1
1 -1 -2 -2 1 4 2 2 2 -1 -3 -2 1 1 3 0 -1 1 -2 7 8 4 6 5 7 7 7 5 3 4 2 2 -0 -1 1 1 1 1 -2 -3 -1 -1 -0
4 -1 2 3 -2 0 1 -0 -3 -3 -2 -1 -2 1 1 1 2 2 5 3 4 5 2 2 5 5 5 5 5 4 4 -0 -0 1 0 -1 -1 -1 -1 -1 -1 -1 -1
-4 -3 -2 1 4 2 1 2 -1 -0 -0 -0 0 -0 0 -5 -0 -1 2 4 -1 4 4 3 3 2 2 4 0 2 2 1 2 0 -3 -1 -0 -2 -5 -3 -2 -2 -2
-7 -5 -3 0 1 1 -0 1 1 2 -0 0 0 -0 -2 1 1 -0 0 1 1 1 0 2 4 6 4 -1 -3 6 3 0 -1 -1 -1 -1 -1 -2 -4 -3 -1 1 2
0 1 1 2 -3 3 2 -2 1 -1 1 1 -0 0 1 -0 -2 1 2 3 3 3 5 5 2 1 3 4 1 -3 -3 -3 -1 -0 1 -0 -3 -2 -2 -2 -3 -1 1
-4 -3 -5 -2 -2 -2 -1 3 1 4 4 0 1 -2 -1 -0 4 2 5 4 3 4 2 3 6 4 0 -3 -3 -2 2 1 -3 0 0 -2 -1 0 -1 -1 -1 -0 1
4 5 0 1 -4 -0 -1 0 2 -1 -2 -1 -3 -2 3 2 1 -0 2 0 -1 3 4 3 3 -2 -6 -5 -4 -0 1 -2 0 3 0 -0 -1 -2 -1 1 -1 -0 1
-2 -1 -1 -3 2 2 1 3 4 3 0 4 4 1 6 4 -4 2 -0 -5 -2 -2 7 -4 0 -4 -4 -0 3 3 -2 -2 1 1 2 0 0 -2 -1 1 -0 0 -1
2 -0 -1 -3 0 -2 0 -1 -0 1 0 2 1 9 1 3 1 2 -0 4 3 2 -1 7 -2 -3 -6 -2 4 0 0 -1 -1 1 0 -1 -1 -3 1 2 1 -1 -2
-0 -0 -2 0 2 -0 -1 -1 -2 -1 -4 3 -1 1 -3 -0 2 -1 -4 1 5 1 -4 -2 2 -4 -4 -4 -2 -2 0 0 -0 1 1 -0 -1 -2 2 -0 1 -0 -2
-1 1 -2 -4 2 0 -0 1 -2 -2 2 4 0 -2 1 0 -2 -1 0 1 -1 -1 -1 -6 -2 -1 -0 -1 -1 0 0 2 2 2 -2 -2 -3 1 -1 -1 1 1 1
-1 -0 -1 2 -2 0 1 -3 -2 2 5 6 0 -1 -4 1 5 -1 -3 -1 -1 -1 -3 -4 -2 -0 1 -0 -1 -1 1 2 2 -1 -2 -0 -1 -1 -1 -0 0 -0 2
-0 -1 -3 2 -1 -3 -2 3 2 0 0 -2 -3 -4 -6 -2 3 -2 -4 -3 -4 -1 -0 -2 -1 4 1 1 0 -0 3 2 -3 -3 -1 -2 0 0 -1 0 0 2 1
-0 -1 -1 -2 5 1 -2 3 0 -1 -1 -0 -1 -2 -5 -3 -1 -0 -2 -2 -1 -0 -3 3 5 4 -0 -1 1 0 2 -2 -2 1 -3 1 0 -1 1 -1 1 0 -1
-1 1 -0 -0 -1 1 0 -5 1 1 -2 -1 -0 -0 1 -2 -1 1 0 2 4 2 2 -1 2 2 1 1 3 0 -3 -3 2 -1 -0 -2 2 2 -2 1 1 -1 1
3 -0 1 0 1 -0 2 -1 1 -2 -2 1 0 -1 -0 -0 1 3 4 3 2 -1 -1 1 1 0 0 3 2 -4 -1 1 -1 0 5 -2 2 4 1 -0 1 -2 1
Height
5683 5690 5697 5705 5712 5718 5724 5731 5737 5744 5744 5752 5751 5756 5758 5763 5767 5770 5772 5775 5778 5779 5783 5785 5787 5789 5791 5792 5793 5795 5795 5796 5796 5795 5795 5795 5793 5792 5791 5790 5788 5786 5784
5673 5680 5686 5694 5701 5707 5713 5720 5726 5730 5735 5740 5745 5747 5751 5752 5757 5760 5762 5764 5766 5770 5772 5774 5777 5778 5780 5782 5782 5783 5783 5784 5784 5784 5784 5783 5781 5780 5779 5777 5775 5773 5771
5662 5669 5677 5683 5689 5696 5702 5708 5713 5718 5724 5728 5731 5734 5739 5741 5746 5749 5751 5754 5757 5759 5762 5764 5766 5767 5767 5769 5769 5770 5771 5771 5772 5772 5771 5771 5769 5767 5766 5764 5763 5760 5758
5652 5659 5666 5672 5677 5683 5690 5696 5701 5705 5710 5715 5720 5723 5726 5730 5734 5737 5740 5743 5745 5747 5749 5751 5754 5756 5757 5757 5757 5756 5757 5757 5757 5757 5757 5757 5755 5754 5752 5750 5748 5746 5744
5641 5648 5654 5659 5664 5670 5676 5683 5689 5694 5698 5703 5706 5711 5715 5719 5721 5725 5729 5732 5734 5736 5738 5739 5742 5744 5743 5744 5745 5744 5744 5744 5744 5744 5743 5742 5741 5740 5739 5736 5735 5732 5730
5629 5636 5642 5648 5653 5658 5664 5669 5675 5681 5685 5690 5694 5698 5701 5705 5709 5713 5716 5719 5721 5723 5726 5727 5728 5729 5729 5729 5732 5731 5731 5731 5731 5731 5730 5730 5727 5726 5724 5723 5720 5718 5715
5616 5623 5630 5635 5640 5646 5651 5657 5662 5667 5672 5676 5680 5683 5687 5691 5693 5698 5703 5705 5709 5710 5712 5712 5714 5714 5715 5713 5716 5717 5717 5717 5716 5715 5714 5714 5713 5710 5709 5707 5705 5702 5700
5603 5609 5615 5621 5626 5631 5636 5641 5647 5652 5657 5661 5665 5669 5673 5677 5681 5684 5688 5691 5693 5695 5697 5699 5700 5700 5700 5700 5701 5701 5701 5701 5700 5699 5699 5699 5698 5696 5694 5692 5690 5687 5685
5590 5595 5600 5607 5613 5617 5623 5628 5632 5637 5642 5646 5651 5654 5657 5662 5666 5670 5672 5675 5678 5680 5682 5684 5686 5685 5685 5685 5686 5686 5687 5686 5686 5685 5684 5683 5682 5680 5679 5677 5675 5672 5669
5578 5583 5590 5594 5600 5606 5612 5616 5620 5625 5628 5632 5636 5640 5644 5647 5651 5655 5657 5660 5662 5665 5668 5669 5670 5671 5670 5671 5671 5670 5671 5671 5671 5671 5670 5669 5667 5665 5664 5662 5659 5656 5653
5567 5571 5576 5582 5586 5592 5597 5602 5607 5611 5615 5618 5622 5626 5629 5633 5636 5639 5642 5644 5646 5648 5651 5653 5654 5654 5655 5655 5655 5655 5656 5656 5656 5656 5655 5654 5653 5651 5649 5646 5643 5640 5635
5555 5560 5565 5570 5574 5578 5584 5588 5593 5597 5601 5605 5609 5612 5614 5618 5621 5624 5626 5629 5631 5633 5635 5636 5638 5639 5640 5640 5639 5640 5640 5640 5640 5641 5640 5639 5637 5636 5633 5631 5627 5622 5617
5545 5550 5555 5560 5563 5567 5571 5575 5579 5583 5587 5592 5596 5599 5602 5606 5608 5610 5613 5615 5616 5618 5620 5621 5623 5623 5624 5624 5625 5626 5626 5626 5626 5626 5624 5623 5621 5618 5616 5614 5610 5605 5599
5534 5538 5543 5546 5550 5554 5558 5563 5567 5570 5575 5578 5582 5585 5588 5591 5593 5596 5599 5601 5602 5604 5606 5607 5608 5609 5608 5609 5611 5612 5612 5612 5611 5610 5609 5607 5604 5601 5598 5595 5591 5588 5581
5520 5525 5530 5534 5539 5543 5545 5550 5554 5557 5560 5563 5565 5568 5571 5574 5577 5579 5583 5585 5587 5590 5592 5593 5594 5594 5595 5596 5598 5598 5597 5597 5596 5595 5592 5590 5587 5583 5580 5578 5573 5569 5565
5510 5514 5518 5522 5526 5530 5533 5536 5539 5542 5545 5549 5553 5555 5558 5561 5566 5568 5569 5571 5573 5576 5578 5579 5580 5581 5581 5582 5583 5584 5583 5581 5580 5578 5575 5572 5569 5567 5563 5559 5556 5552 5549
5499 5502 5506 5509 5513 5517 5520 5524 5526 5530 5533 5537 5541 5544 5545 5551 5553 5556 5558 5560 5562 5565 5565 5564 5564 5565 5566 5568 5568 5568 5567 5565 5564 5561 5558 5554 5551 5549 5546 5542 5540 5537 5533
5490 5493 5496 5500 5503 5506 5510 5514 5517 5521 5523 5525 5528 5531 5535 5540 5542 5542 5544 5547 5550 5551 5551 5549 5549 5550 5552 5553 5553 5551 5549 5547 5545 5543 5540 5537 5534 5533 5531 5528 5524 5521 5518
5479 5482 5486 5489 5492 5496 5499 5503 5506 5509 5510 5512 5515 5518 5522 5525 5528 5530 5531 5533 5535 5534 5535 5534 5532 5534 5535 5536 5535 5534 5532 5530 5528 5526 5523 5521 5519 5517 5515 5512 5508 5505 5501
5466 5469 5474 5477 5481 5484 5486 5489 5493 5495 5497 5499 5502 5505 5509 5512 5514 5515 5516 5518 5519 5519 5519 5519 5518 5519 5519 5519 5518 5517 5515 5513 5511 5509 5507 5505 5503 5502 5500 5496 5492 5488 5484
5452 5456 5459 5463 5467 5469 5472 5475 5478 5482 5484 5486 5488 5490 5494 5497 5498 5500 5501 5502 5502 5503 5503 5503 5503 5503 5502 5500 5499 5499 5498 5496 5494 5493 5492 5489 5487 5486 5482 5479 5475 5472 5468
5438 5441 5445 5449 5451 5455 5457 5460 5463 5467 5470 5472 5473 5475 5478 5482 5483 5483 5485 5486 5487 5486 5486 5486 5487 5486 5484 5482 5482 5481 5482 5481 5478 5476 5475 5473 5471 5468 5464 5461 5458 5454 5451
5422 5426 5430 5434 5436 5438 5442 5446 5449 5452 5454 5456 5457 5459 5462 5465 5466 5466 5467 5468 5469 5469 5469 5469 5469 5467 5466 5465 5466 5465 5466 5464 5462 5460 5458 5456 5453 5450 5447 5444 5440 5437 5433
5406 5409 5412 5415 5419 5421 5425 5430 5432 5434 5436 5438 5440 5442 5443 5446 5448 5450 5450 5449 5450 5449 5450 5450 5449 5450 5449 5449 5450 5450 5449 5448 5446 5443 5441 5439 5436 5432 5429 5425 5422 5419 5416
5393 5395 5397 5399 5401 5404 5407 5409 5413 5414 5417 5420 5421 5422 5423 5426 5429 5431 5431 5429 5429 5430 5431 5432 5433 5433 5433 5434 5434 5434 5432 5430 5428 5426 5423 5421 5418 5414 5410 5408 5404 5401 5398
5378 5380 5383 5385 5387 5389 5391 5393 5396 5397 5399 5401 5403 5405 5407 5409 5410 5411 5412 5413 5413 5414 5415 5416 5416 5417 5418 5418 5418 5417 5415 5413 5410 5408 5406 5403 5400 5397 5393 5390 5387 5383 5380